contact:dominique.lefevre@mio.osupytheas.fr, maurice.libes@osupytheas.fr, didier.mallarino@osupytheas.fr
Project:EMSO http://www.emso-fr.org/EMSO-France
Depth: 2436.0 m
Title:EMSO Ligure Ouest : Data MII capteur MICROCAT
DateTime_Computer,Latitude,Longitude,Temperature,Conductivity,Pressure,DateTime_Instrument
DateTime_Computer,Latitude,Longitude,degC,S m-1,dbar,DateTime_Instrument
2022-12-07T00:02:05Z,42.805,6.029,13.3024,4.60076,2470.53,2022-12-07T02:04:05Z
2022-12-07T00:05:08Z,42.805,6.029,13.3018,4.60085,2470.483,2022-12-07T02:07:08Z
2022-12-07T00:08:11Z,42.805,6.029,13.3020,4.60077,2470.53,2022-12-07T02:10:11Z
2022-12-07T00:11:14Z,42.805,6.029,13.3023,4.60086,2470.507,2022-12-07T02:13:14Z
2022-12-07T00:14:17Z,42.805,6.029,13.3022,4.60086,2470.577,2022-12-07T02:16:17Z
2022-12-07T00:17:20Z,42.805,6.029,13.3024,4.60090,2470.53,2022-12-07T02:19:20Z
2022-12-07T00:20:23Z,42.805,6.029,13.3015,4.60087,2470.553,2022-12-07T02:22:23Z
2022-12-07T00:23:26Z,42.805,6.029,13.3020,4.60095,2470.53,2022-12-07T02:25:27Z
2022-12-07T00:26:30Z,42.805,6.029,13.3016,4.60078,2470.553,2022-12-07T02:28:30Z
2022-12-07T00:29:33Z,42.805,6.029,13.3016,4.60081,2470.53,2022-12-07T02:31:33Z
2022-12-07T00:32:36Z,42.805,6.029,13.3019,4.60075,2470.53,2022-12-07T02:34:36Z
2022-12-07T00:35:39Z,42.805,6.029,13.3022,4.60077,2470.553,2022-12-07T02:37:39Z
2022-12-07T00:38:42Z,42.805,6.029,13.3019,4.60094,2470.53,2022-12-07T02:40:42Z
2022-12-07T00:41:45Z,42.805,6.029,13.3016,4.60075,2470.507,2022-12-07T02:43:45Z
2022-12-07T00:44:48Z,42.805,6.029,13.3020,4.60077,2470.544,2022-12-07T02:46:48Z
2022-12-07T00:47:51Z,42.805,6.029,13.3018,4.60079,2470.53,2022-12-07T02:49:51Z
2022-12-07T00:50:54Z,42.805,6.029,13.3022,4.60081,2470.544,2022-12-07T02:52:54Z
2022-12-07T00:53:57Z,42.805,6.029,13.3021,4.60084,2470.53,2022-12-07T02:55:57Z
2022-12-07T00:57:00Z,42.805,6.029,13.3014,4.60082,2470.53,2022-12-07T02:59:00Z
2022-12-07T01:00:03Z,42.805,6.029,13.3021,4.60091,2470.567,2022-12-07T03:02:03Z
2022-12-07T01:03:06Z,42.805,6.029,13.3023,4.60082,2470.544,2022-12-07T03:05:06Z
2022-12-07T01:06:09Z,42.805,6.029,13.3017,4.60084,2470.553,2022-12-07T03:08:10Z
2022-12-07T01:09:13Z,42.805,6.029,13.3017,4.60077,2470.553,2022-12-07T03:11:13Z
2022-12-07T01:12:16Z,42.805,6.029,13.3017,4.60074,2470.52,2022-12-07T03:14:16Z
2022-12-07T01:15:19Z,42.805,6.029,13.3014,4.60068,2470.53,2022-12-07T03:17:19Z
2022-12-07T01:18:22Z,42.805,6.029,13.3019,4.60075,2470.53,2022-12-07T03:20:22Z
2022-12-07T01:21:25Z,42.805,6.029,13.3019,4.60080,2470.483,2022-12-07T03:23:25Z
2022-12-07T01:24:28Z,42.805,6.029,13.3017,4.60084,2470.544,2022-12-07T03:26:28Z
2022-12-07T01:27:31Z,42.805,6.029,13.3024,4.60076,2470.507,2022-12-07T03:29:31Z
2022-12-07T01:30:34Z,42.805,6.029,13.3021,4.60076,2470.52,2022-12-07T03:32:34Z
2022-12-07T01:33:37Z,42.805,6.029,13.3019,4.60084,2470.507,2022-12-07T03:35:37Z
2022-12-07T01:36:40Z,42.805,6.029,13.3017,4.60072,2470.544,2022-12-07T03:38:40Z
2022-12-07T01:39:43Z,42.805,6.029,13.3029,4.60092,2470.53,2022-12-07T03:41:43Z
2022-12-07T01:42:46Z,42.805,6.029,13.3013,4.60079,2470.567,2022-12-07T03:44:46Z
2022-12-07T01:45:49Z,42.805,6.029,13.3023,4.60078,2470.544,2022-12-07T03:47:49Z
2022-12-07T01:48:52Z,42.805,6.029,13.3023,4.60075,2470.553,2022-12-07T03:50:53Z
2022-12-07T01:51:56Z,42.805,6.029,13.3014,4.60076,2470.567,2022-12-07T03:53:56Z
2022-12-07T01:54:59Z,42.805,6.029,13.3016,4.60083,2470.507,2022-12-07T03:56:59Z
2022-12-07T01:58:02Z,42.805,6.029,13.3016,4.60079,2470.567,2022-12-07T04:00:02Z
2022-12-07T02:01:05Z,42.805,6.029,13.3018,4.60079,2470.553,2022-12-07T04:03:05Z
2022-12-07T02:04:08Z,42.805,6.029,13.3020,4.60080,2470.577,2022-12-07T04:06:08Z
2022-12-07T02:07:11Z,42.805,6.029,13.3026,4.60090,2470.553,2022-12-07T04:09:11Z
2022-12-07T02:10:14Z,42.805,6.029,13.3014,4.60080,2470.53,2022-12-07T04:12:14Z
2022-12-07T02:13:17Z,42.805,6.029,13.3016,4.60079,2470.544,2022-12-07T04:15:17Z
2022-12-07T02:16:20Z,42.805,6.029,13.3014,4.60073,2470.553,2022-12-07T04:18:20Z
2022-12-07T02:19:23Z,42.805,6.029,13.3019,4.60075,2470.53,2022-12-07T04:21:23Z
2022-12-07T02:22:26Z,42.805,6.029,13.3024,4.60074,2470.567,2022-12-07T04:24:26Z
2022-12-07T02:25:29Z,42.805,6.029,13.3019,4.60072,2470.567,2022-12-07T04:27:29Z
2022-12-07T02:28:32Z,42.805,6.029,13.3020,4.60091,2470.577,2022-12-07T04:30:32Z
2022-12-07T02:31:35Z,42.805,6.029,13.3017,4.60075,2470.53,2022-12-07T04:33:35Z
2022-12-07T02:34:38Z,42.805,6.029,13.3021,4.60077,2470.567,2022-12-07T04:36:39Z
2022-12-07T02:37:42Z,42.805,6.029,13.3027,4.60079,2470.577,2022-12-07T04:39:42Z
2022-12-07T02:40:45Z,42.805,6.029,13.3017,4.60084,2470.553,2022-12-07T04:42:45Z
2022-12-07T02:43:48Z,42.805,6.029,13.3011,4.60078,2470.591,2022-12-07T04:45:48Z
2022-12-07T02:46:51Z,42.805,6.029,13.3015,4.60083,2470.6,2022-12-07T04:48:51Z
2022-12-07T02:49:54Z,42.805,6.029,13.3015,4.60067,2470.591,2022-12-07T04:51:54Z
2022-12-07T02:52:57Z,42.805,6.029,13.3022,4.60081,2470.6,2022-12-07T04:54:57Z
2022-12-07T02:56:00Z,42.805,6.029,13.3022,4.60077,2470.577,2022-12-07T04:58:00Z
2022-12-07T02:59:03Z,42.805,6.029,13.3015,4.60070,2470.614,2022-12-07T05:01:03Z
2022-12-07T03:02:06Z,42.805,6.029,13.3022,4.60074,2470.614,2022-12-07T05:04:06Z
2022-12-07T03:05:09Z,42.805,6.029,13.3017,4.60084,2470.6,2022-12-07T05:07:09Z
2022-12-07T03:08:12Z,42.805,6.029,13.3023,4.60099,2470.614,2022-12-07T05:10:12Z
2022-12-07T03:11:15Z,42.805,6.029,13.3018,4.60076,2470.614,2022-12-07T05:13:15Z
2022-12-07T03:14:18Z,42.805,6.029,13.3019,4.60072,2470.624,2022-12-07T05:16:18Z
2022-12-07T03:17:21Z,42.805,6.029,13.3014,4.60071,2470.614,2022-12-07T05:19:21Z
2022-12-07T03:20:24Z,42.805,6.029,13.3026,4.60077,2470.624,2022-12-07T05:22:24Z
2022-12-07T03:23:27Z,42.805,6.029,13.3016,4.60074,2470.614,2022-12-07T05:25:28Z
2022-12-07T03:26:31Z,42.805,6.029,13.3014,4.60072,2470.6,2022-12-07T05:28:31Z
2022-12-07T03:29:34Z,42.805,6.029,13.3020,4.60074,2470.637,2022-12-07T05:31:34Z
2022-12-07T03:32:37Z,42.805,6.029,13.3026,4.60088,2470.624,2022-12-07T05:34:37Z
2022-12-07T03:35:40Z,42.805,6.029,13.3023,4.60078,2470.646,2022-12-07T05:37:40Z
2022-12-07T03:38:43Z,42.805,6.029,13.3016,4.60076,2470.624,2022-12-07T05:40:43Z
2022-12-07T03:41:46Z,42.805,6.029,13.3022,4.60077,2470.637,2022-12-07T05:43:46Z
2022-12-07T03:44:49Z,42.805,6.029,13.3018,4.60075,2470.637,2022-12-07T05:46:49Z
2022-12-07T03:47:52Z,42.805,6.029,13.3014,4.60079,2470.624,2022-12-07T05:49:52Z
2022-12-07T03:50:55Z,42.805,6.029,13.3015,4.60074,2470.661,2022-12-07T05:52:55Z
2022-12-07T03:53:58Z,42.805,6.029,13.3018,4.60080,2470.67,2022-12-07T05:55:58Z
2022-12-07T03:57:01Z,42.805,6.029,13.3019,4.60074,2470.637,2022-12-07T05:59:01Z
2022-12-07T04:00:04Z,42.805,6.029,13.3011,4.60079,2470.661,2022-12-07T06:02:04Z
2022-12-07T04:03:07Z,42.805,6.029,13.3022,4.60076,2470.661,2022-12-07T06:05:07Z
2022-12-07T04:06:10Z,42.805,6.029,13.3021,4.60082,2470.693,2022-12-07T06:08:11Z
2022-12-07T04:09:14Z,42.805,6.029,13.3022,4.60097,2470.646,2022-12-07T06:11:14Z
2022-12-07T04:12:17Z,42.805,6.029,13.3021,4.60085,2470.684,2022-12-07T06:14:17Z
2022-12-07T04:15:20Z,42.805,6.029,13.3022,4.60087,2470.707,2022-12-07T06:17:20Z
2022-12-07T04:18:23Z,42.805,6.029,13.3020,4.60092,2470.693,2022-12-07T06:20:23Z
2022-12-07T04:21:26Z,42.805,6.029,13.3022,4.60094,2470.67,2022-12-07T06:23:26Z
2022-12-07T04:24:29Z,42.805,6.029,13.3017,4.60078,2470.693,2022-12-07T06:26:29Z
2022-12-07T04:27:32Z,42.805,6.029,13.3020,4.60080,2470.67,2022-12-07T06:29:32Z
2022-12-07T04:30:35Z,42.805,6.029,13.3026,4.60079,2470.684,2022-12-07T06:32:35Z
2022-12-07T04:33:38Z,42.805,6.029,13.3025,4.60084,2470.693,2022-12-07T06:35:38Z
2022-12-07T04:36:41Z,42.805,6.029,13.3024,4.60081,2470.67,2022-12-07T06:38:41Z
2022-12-07T04:39:44Z,42.805,6.029,13.3025,4.60096,2470.693,2022-12-07T06:41:44Z
2022-12-07T04:42:47Z,42.805,6.029,13.3026,4.60082,2470.684,2022-12-07T06:44:47Z
2022-12-07T04:45:50Z,42.805,6.029,13.3025,4.60098,2470.693,2022-12-07T06:47:50Z
2022-12-07T04:48:53Z,42.805,6.029,13.3026,4.60080,2470.67,2022-12-07T06:50:54Z
2022-12-07T04:51:57Z,42.805,6.029,13.3016,4.60083,2470.717,2022-12-07T06:53:57Z
2022-12-07T04:55:00Z,42.805,6.029,13.3016,4.60074,2470.693,2022-12-07T06:57:00Z
2022-12-07T04:58:03Z,42.805,6.029,13.3019,4.60077,2470.693,2022-12-07T07:00:03Z
2022-12-07T05:01:06Z,42.805,6.029,13.3022,4.60083,2470.707,2022-12-07T07:03:06Z
2022-12-07T05:04:09Z,42.805,6.029,13.3026,4.60092,2470.693,2022-12-07T07:06:09Z
2022-12-07T05:07:12Z,42.805,6.029,13.3026,4.60074,2470.717,2022-12-07T07:09:12Z
2022-12-07T05:10:15Z,42.805,6.029,13.3017,4.60100,2470.73,2022-12-07T07:12:15Z
2022-12-07T05:13:18Z,42.805,6.029,13.3014,4.60081,2470.707,2022-12-07T07:15:18Z
2022-12-07T05:16:21Z,42.805,6.029,13.3014,4.60071,2470.67,2022-12-07T07:18:21Z
2022-12-07T05:19:24Z,42.805,6.029,13.3015,4.60070,2470.717,2022-12-07T07:21:24Z
2022-12-07T05:22:27Z,42.805,6.029,13.3018,4.60074,2470.73,2022-12-07T07:24:27Z
2022-12-07T05:25:30Z,42.805,6.029,13.3016,4.60077,2470.73,2022-12-07T07:27:30Z
2022-12-07T05:28:33Z,42.805,6.029,13.3015,4.60078,2470.693,2022-12-07T07:30:33Z
2022-12-07T05:31:36Z,42.805,6.029,13.3021,4.60074,2470.73,2022-12-07T07:33:36Z
2022-12-07T05:34:39Z,42.805,6.029,13.3017,4.60077,2470.717,2022-12-07T07:36:40Z
2022-12-07T05:37:43Z,42.805,6.029,13.3022,4.60074,2470.74,2022-12-07T07:39:43Z
2022-12-07T05:40:46Z,42.805,6.029,13.3019,4.60074,2470.763,2022-12-07T07:42:46Z
2022-12-07T05:43:49Z,42.805,6.029,13.3016,4.60073,2470.754,2022-12-07T07:45:49Z
2022-12-07T05:46:52Z,42.805,6.029,13.3016,4.60072,2470.74,2022-12-07T07:48:52Z
2022-12-07T05:49:55Z,42.805,6.029,13.3016,4.60073,2470.74,2022-12-07T07:51:55Z
2022-12-07T05:52:58Z,42.805,6.029,13.3015,4.60070,2470.754,2022-12-07T07:54:58Z
2022-12-07T05:56:01Z,42.805,6.029,13.3017,4.60071,2470.754,2022-12-07T07:58:01Z
2022-12-07T05:59:04Z,42.805,6.029,13.3021,4.60079,2470.73,2022-12-07T08:01:04Z
2022-12-07T06:02:07Z,42.805,6.029,13.3019,4.60077,2470.763,2022-12-07T08:04:07Z
2022-12-07T06:05:10Z,42.805,6.029,13.3013,4.60079,2470.73,2022-12-07T08:07:10Z
2022-12-07T06:08:13Z,42.805,6.029,13.3020,4.60092,2470.717,2022-12-07T08:10:13Z
2022-12-07T06:11:16Z,42.805,6.029,13.3021,4.60089,2470.763,2022-12-07T08:13:16Z
2022-12-07T06:14:19Z,42.805,6.029,13.3019,4.60080,2470.74,2022-12-07T08:16:19Z
2022-12-07T06:17:22Z,42.805,6.029,13.3019,4.60076,2470.763,2022-12-07T08:19:23Z
2022-12-07T06:20:26Z,42.805,6.029,13.3019,4.60082,2470.717,2022-12-07T08:22:26Z
2022-12-07T06:23:29Z,42.805,6.029,13.3014,4.60076,2470.74,2022-12-07T08:25:29Z
2022-12-07T06:26:32Z,42.805,6.029,13.3015,4.60079,2470.763,2022-12-07T08:28:32Z
2022-12-07T06:29:35Z,42.805,6.029,13.3021,4.60087,2470.787,2022-12-07T08:31:35Z
2022-12-07T06:32:38Z,42.805,6.029,13.3021,4.60084,2470.74,2022-12-07T08:34:38Z
2022-12-07T06:35:41Z,42.805,6.029,13.3019,4.60080,2470.763,2022-12-07T08:37:41Z
2022-12-07T06:38:44Z,42.805,6.029,13.3020,4.60081,2470.717,2022-12-07T08:40:44Z
2022-12-07T06:41:47Z,42.805,6.029,13.3022,4.60082,2470.763,2022-12-07T08:43:47Z
2022-12-07T06:44:50Z,42.805,6.029,13.3016,4.60077,2470.777,2022-12-07T08:46:50Z
2022-12-07T06:47:53Z,42.805,6.029,13.3026,4.60084,2470.74,2022-12-07T08:49:53Z
2022-12-07T06:50:56Z,42.805,6.029,13.3015,4.60070,2470.73,2022-12-07T08:52:56Z
2022-12-07T06:53:59Z,42.805,6.029,13.3022,4.60075,2470.67,2022-12-07T08:55:59Z
2022-12-07T06:57:02Z,42.805,6.029,13.3020,4.60072,2470.74,2022-12-07T08:59:02Z
2022-12-07T07:00:05Z,42.805,6.029,13.3012,4.60074,2470.717,2022-12-07T09:02:06Z
2022-12-07T07:03:08Z,42.805,6.029,13.3017,4.60074,2470.754,2022-12-07T09:05:09Z
2022-12-07T07:06:12Z,42.805,6.029,13.3026,4.60095,2470.763,2022-12-07T09:08:12Z
2022-12-07T07:09:15Z,42.805,6.029,13.3019,4.60084,2470.754,2022-12-07T09:11:15Z
2022-12-07T07:12:18Z,42.805,6.029,13.3021,4.60090,2470.73,2022-12-07T09:14:18Z
2022-12-07T07:15:21Z,42.805,6.029,13.3014,4.60094,2470.717,2022-12-07T09:17:21Z
2022-12-07T07:18:24Z,42.805,6.029,13.3019,4.60076,2470.717,2022-12-07T09:20:24Z
2022-12-07T07:21:27Z,42.805,6.029,13.3024,4.60096,2470.73,2022-12-07T09:23:27Z
2022-12-07T07:24:30Z,42.805,6.029,13.3016,4.60074,2470.74,2022-12-07T09:26:30Z
2022-12-07T07:27:33Z,42.805,6.029,13.3014,4.60075,2470.717,2022-12-07T09:29:33Z
2022-12-07T07:30:36Z,42.805,6.029,13.3015,4.60082,2470.754,2022-12-07T09:32:36Z
2022-12-07T07:33:39Z,42.805,6.029,13.3020,4.60080,2470.777,2022-12-07T09:35:39Z
2022-12-07T07:36:42Z,42.805,6.029,13.3026,4.60102,2470.73,2022-12-07T09:38:42Z
2022-12-07T07:39:45Z,42.805,6.029,13.3023,4.60099,2470.74,2022-12-07T09:41:45Z
2022-12-07T07:42:48Z,42.805,6.029,13.3018,4.60095,2470.73,2022-12-07T09:44:49Z
2022-12-07T07:45:51Z,42.805,6.029,13.3019,4.60099,2470.74,2022-12-07T09:47:52Z
2022-12-07T07:48:55Z,42.805,6.029,13.3018,4.60074,2470.74,2022-12-07T09:50:55Z
2022-12-07T07:51:58Z,42.805,6.029,13.3015,4.60083,2470.717,2022-12-07T09:53:58Z
2022-12-07T07:55:01Z,42.805,6.029,13.3021,4.60075,2470.707,2022-12-07T09:57:01Z
2022-12-07T07:58:04Z,42.805,6.029,13.3020,4.60079,2470.74,2022-12-07T10:00:04Z
2022-12-07T08:01:07Z,42.805,6.029,13.3024,4.60104,2470.74,2022-12-07T10:03:07Z
2022-12-07T08:04:10Z,42.805,6.029,13.3024,4.60089,2470.717,2022-12-07T10:06:10Z
2022-12-07T08:07:13Z,42.805,6.029,13.3016,4.60097,2470.73,2022-12-07T10:09:13Z
2022-12-07T08:10:16Z,42.805,6.029,13.3018,4.60084,2470.754,2022-12-07T10:12:16Z
2022-12-07T08:13:19Z,42.805,6.029,13.3022,4.60075,2470.754,2022-12-07T10:15:19Z
2022-12-07T08:16:22Z,42.805,6.029,13.3020,4.60080,2470.717,2022-12-07T10:18:22Z
2022-12-07T08:19:25Z,42.805,6.029,13.3015,4.60084,2470.73,2022-12-07T10:21:25Z
2022-12-07T08:22:28Z,42.805,6.029,13.3022,4.60110,2470.693,2022-12-07T10:24:29Z
2022-12-07T08:25:31Z,42.805,6.029,13.3025,4.60085,2470.73,2022-12-07T10:27:32Z
2022-12-07T08:48:08Z,42.805,6.029,13.3019,4.60094,2470.73,2022-12-07T10:50:09Z
2022-12-07T08:51:12Z,42.805,6.029,13.3020,4.60087,2470.707,2022-12-07T10:53:12Z
2022-12-07T08:54:15Z,42.805,6.029,13.3024,4.60079,2470.717,2022-12-07T10:56:15Z
2022-12-07T08:57:18Z,42.805,6.029,13.3022,4.60086,2470.73,2022-12-07T10:59:18Z
2022-12-07T09:00:21Z,42.805,6.029,13.3022,4.60104,2470.703,2022-12-07T11:02:21Z
2022-12-07T09:03:24Z,42.805,6.029,13.3024,4.60094,2470.717,2022-12-07T11:05:24Z
2022-12-07T09:06:27Z,42.805,6.029,13.3019,4.60085,2470.684,2022-12-07T11:08:27Z
2022-12-07T09:09:30Z,42.805,6.029,13.3021,4.60093,2470.717,2022-12-07T11:11:30Z
2022-12-07T09:12:33Z,42.805,6.029,13.3024,4.60089,2470.67,2022-12-07T11:14:33Z
2022-12-07T09:15:36Z,42.805,6.029,13.3021,4.60078,2470.693,2022-12-07T11:17:36Z
2022-12-07T09:18:39Z,42.805,6.029,13.3017,4.60086,2470.717,2022-12-07T11:20:39Z
2022-12-07T09:21:42Z,42.805,6.029,13.3026,4.60093,2470.74,2022-12-07T11:23:42Z
2022-12-07T09:24:45Z,42.805,6.029,13.3011,4.60091,2470.693,2022-12-07T11:26:46Z
2022-12-07T09:27:48Z,42.805,6.029,13.3019,4.60078,2470.684,2022-12-07T11:29:49Z
2022-12-07T09:30:52Z,42.805,6.029,13.3019,4.60087,2470.707,2022-12-07T11:32:52Z
2022-12-07T09:33:55Z,42.805,6.029,13.3022,4.60104,2470.693,2022-12-07T11:35:55Z
2022-12-07T09:36:58Z,42.805,6.029,13.3022,4.60083,2470.693,2022-12-07T11:38:58Z
2022-12-07T09:40:01Z,42.805,6.029,13.3020,4.60087,2470.717,2022-12-07T11:42:01Z
2022-12-07T09:43:04Z,42.805,6.029,13.3020,4.60086,2470.693,2022-12-07T11:45:04Z
2022-12-07T09:46:07Z,42.805,6.029,13.3023,4.60084,2470.707,2022-12-07T11:48:07Z
2022-12-07T09:49:10Z,42.805,6.029,13.3020,4.60076,2470.684,2022-12-07T11:51:10Z
2022-12-07T09:52:13Z,42.805,6.029,13.3031,4.60085,2470.707,2022-12-07T11:54:13Z
2022-12-07T09:55:16Z,42.805,6.029,13.3022,4.60092,2470.73,2022-12-07T11:57:16Z
2022-12-07T09:58:19Z,42.805,6.029,13.3021,4.60091,2470.693,2022-12-07T12:00:19Z
2022-12-07T10:01:22Z,42.805,6.029,13.3027,4.60087,2470.684,2022-12-07T12:03:22Z
2022-12-07T10:04:25Z,42.805,6.029,13.3027,4.60092,2470.684,2022-12-07T12:06:26Z
2022-12-07T10:07:28Z,42.805,6.029,13.3026,4.60101,2470.703,2022-12-07T12:09:29Z
2022-12-07T10:10:32Z,42.805,6.029,13.3019,4.60093,2470.67,2022-12-07T12:12:32Z
2022-12-07T10:13:35Z,42.805,6.029,13.3026,4.60091,2470.67,2022-12-07T12:15:35Z
2022-12-07T10:16:38Z,42.805,6.029,13.3019,4.60087,2470.684,2022-12-07T12:18:38Z
2022-12-07T10:19:41Z,42.805,6.029,13.3018,4.60087,2470.707,2022-12-07T12:21:41Z
2022-12-07T10:22:44Z,42.805,6.029,13.3028,4.60101,2470.693,2022-12-07T12:24:44Z
2022-12-07T10:25:47Z,42.805,6.029,13.3027,4.60099,2470.67,2022-12-07T12:27:47Z
2022-12-07T10:28:50Z,42.805,6.029,13.3020,4.60079,2470.661,2022-12-07T12:30:50Z
2022-12-07T10:31:53Z,42.805,6.029,13.3021,4.60091,2470.646,2022-12-07T12:33:53Z
2022-12-07T10:34:56Z,42.805,6.029,13.3029,4.60100,2470.684,2022-12-07T12:36:56Z
2022-12-07T10:37:59Z,42.805,6.029,13.3024,4.60089,2470.684,2022-12-07T12:39:59Z
2022-12-07T10:41:02Z,42.805,6.029,13.3022,4.60087,2470.646,2022-12-07T12:43:02Z
2022-12-07T10:44:05Z,42.805,6.029,13.3022,4.60092,2470.633,2022-12-07T12:46:06Z
2022-12-07T10:47:09Z,42.805,6.029,13.3021,4.60086,2470.637,2022-12-07T12:49:09Z
2022-12-07T10:50:12Z,42.805,6.029,13.3025,4.60097,2470.646,2022-12-07T12:52:12Z
2022-12-07T10:53:15Z,42.805,6.029,13.3016,4.60087,2470.624,2022-12-07T12:55:15Z
2022-12-07T10:56:18Z,42.805,6.029,13.3021,4.60084,2470.661,2022-12-07T12:58:18Z
2022-12-07T10:59:21Z,42.805,6.029,13.3021,4.60094,2470.646,2022-12-07T13:01:21Z
2022-12-07T11:02:24Z,42.805,6.029,13.3021,4.60084,2470.684,2022-12-07T13:04:24Z
2022-12-07T11:05:27Z,42.805,6.029,13.3019,4.60086,2470.646,2022-12-07T13:07:27Z
2022-12-07T11:08:30Z,42.805,6.029,13.3019,4.60087,2470.646,2022-12-07T13:10:30Z
2022-12-07T11:11:33Z,42.805,6.029,13.3027,4.60087,2470.646,2022-12-07T13:13:33Z
2022-12-07T11:14:36Z,42.805,6.029,13.3028,4.60100,2470.624,2022-12-07T13:16:36Z
2022-12-07T11:17:39Z,42.805,6.029,13.3022,4.60105,2470.624,2022-12-07T13:19:39Z
2022-12-07T11:20:42Z,42.805,6.029,13.3023,4.60085,2470.646,2022-12-07T13:22:42Z
2022-12-07T11:23:45Z,42.805,6.029,13.3024,4.60089,2470.6,2022-12-07T13:25:46Z
2022-12-07T11:26:49Z,42.805,6.029,13.3018,4.60089,2470.6,2022-12-07T13:28:49Z
2022-12-07T11:29:52Z,42.805,6.029,13.3021,4.60095,2470.637,2022-12-07T13:31:52Z
2022-12-07T11:32:55Z,42.805,6.029,13.3029,4.60086,2470.6,2022-12-07T13:34:55Z
2022-12-07T11:35:58Z,42.805,6.029,13.3024,4.60096,2470.6,2022-12-07T13:37:58Z
2022-12-07T11:39:01Z,42.805,6.029,13.3021,4.60092,2470.6,2022-12-07T13:41:01Z
2022-12-07T11:42:04Z,42.805,6.029,13.3025,4.60097,2470.6,2022-12-07T13:44:04Z
2022-12-07T11:45:07Z,42.805,6.029,13.3026,4.60095,2470.624,2022-12-07T13:47:07Z
2022-12-07T11:48:10Z,42.805,6.029,13.3023,4.60097,2470.6,2022-12-07T13:50:10Z
2022-12-07T11:51:13Z,42.805,6.029,13.3024,4.60102,2470.624,2022-12-07T13:53:13Z
2022-12-07T11:54:16Z,42.805,6.029,13.3024,4.60089,2470.6,2022-12-07T13:56:16Z
2022-12-07T11:57:19Z,42.805,6.029,13.3021,4.60084,2470.637,2022-12-07T13:59:19Z
2022-12-07T12:00:22Z,42.805,6.029,13.3023,4.60077,2470.577,2022-12-07T14:02:22Z
2022-12-07T12:03:25Z,42.805,6.029,13.3020,4.60083,2470.624,2022-12-07T14:05:26Z
2022-12-07T12:06:28Z,42.805,6.029,13.3024,4.60093,2470.591,2022-12-07T14:08:29Z
2022-12-07T12:09:32Z,42.805,6.029,13.3022,4.60098,2470.637,2022-12-07T14:11:32Z
2022-12-07T12:12:35Z,42.805,6.029,13.3016,4.60072,2470.577,2022-12-07T14:14:35Z
2022-12-07T12:15:38Z,42.805,6.029,13.3016,4.60079,2470.6,2022-12-07T14:17:38Z
2022-12-07T12:18:41Z,42.805,6.029,13.3022,4.60104,2470.553,2022-12-07T14:20:41Z
2022-12-07T12:21:44Z,42.805,6.029,13.3029,4.60094,2470.6,2022-12-07T14:23:44Z
2022-12-07T12:24:47Z,42.805,6.029,13.3014,4.60079,2470.6,2022-12-07T14:26:47Z
2022-12-07T12:27:50Z,42.805,6.029,13.3025,4.60103,2470.567,2022-12-07T14:29:50Z
2022-12-07T12:30:53Z,42.805,6.029,13.3022,4.60091,2470.591,2022-12-07T14:32:53Z
2022-12-07T12:33:56Z,42.805,6.029,13.3024,4.60087,2470.591,2022-12-07T14:35:56Z
2022-12-07T12:36:59Z,42.805,6.029,13.3026,4.60082,2470.614,2022-12-07T14:38:59Z
2022-12-07T12:40:02Z,42.805,6.029,13.3019,4.60091,2470.591,2022-12-07T14:42:02Z
2022-12-07T12:43:05Z,42.805,6.029,13.3019,4.60095,2470.567,2022-12-07T14:45:06Z
2022-12-07T12:46:08Z,42.805,6.029,13.3019,4.60092,2470.553,2022-12-07T14:48:09Z
2022-12-07T13:13:08Z,42.805,6.029,13.3020,4.60081,2470.577,2022-12-07T15:19:02Z
2022-12-07T13:16:11Z,42.805,6.029,13.3023,4.60082,2470.577,2022-12-07T15:22:05Z
2022-12-07T13:19:14Z,42.805,6.029,13.3022,4.60097,2470.553,2022-12-07T15:25:08Z
2022-12-07T13:22:17Z,42.805,6.029,13.3017,4.60079,2470.53,2022-12-07T15:28:11Z
2022-12-07T13:25:20Z,42.805,6.029,13.3016,4.60090,2470.544,2022-12-07T15:31:14Z
2022-12-07T13:28:23Z,42.805,6.029,13.3014,4.60085,2470.553,2022-12-07T15:34:17Z
2022-12-07T13:31:26Z,42.805,6.029,13.3022,4.60093,2470.553,2022-12-07T15:37:20Z
2022-12-07T13:34:30Z,42.805,6.029,13.3019,4.60098,2470.577,2022-12-07T15:40:23Z
2022-12-07T13:37:33Z,42.805,6.029,13.3023,4.60080,2470.507,2022-12-07T15:43:26Z
2022-12-07T13:40:36Z,42.805,6.029,13.3033,4.60089,2470.553,2022-12-07T15:46:29Z
2022-12-07T13:43:39Z,42.805,6.029,13.3020,4.60089,2470.553,2022-12-07T15:49:32Z
2022-12-07T13:46:42Z,42.805,6.029,13.3022,4.60081,2470.53,2022-12-07T15:52:36Z
2022-12-07T13:49:45Z,42.805,6.029,13.3024,4.60082,2470.53,2022-12-07T15:55:39Z
2022-12-07T13:52:48Z,42.805,6.029,13.3023,4.60079,2470.577,2022-12-07T15:58:42Z
2022-12-07T13:55:51Z,42.805,6.029,13.3022,4.60078,2470.539,2022-12-07T16:01:45Z
2022-12-07T13:58:54Z,42.805,6.029,13.3015,4.60077,2470.544,2022-12-07T16:04:48Z
2022-12-07T14:01:57Z,42.805,6.029,13.3024,4.60087,2470.544,2022-12-07T16:07:51Z
2022-12-07T14:05:00Z,42.805,6.029,13.3015,4.60081,2470.553,2022-12-07T16:10:54Z
2022-12-07T14:08:03Z,42.805,6.029,13.3018,4.60093,2470.553,2022-12-07T16:13:57Z
2022-12-07T14:11:06Z,42.805,6.029,13.3024,4.60088,2470.53,2022-12-07T16:17:00Z
2022-12-07T14:14:10Z,42.805,6.029,13.3015,4.60090,2470.553,2022-12-07T16:20:03Z
2022-12-07T14:17:13Z,42.805,6.029,13.3020,4.60080,2470.567,2022-12-07T16:23:06Z
2022-12-07T14:20:16Z,42.805,6.029,13.3020,4.60088,2470.53,2022-12-07T16:26:09Z
2022-12-07T14:23:19Z,42.805,6.029,13.3028,4.60094,2470.591,2022-12-07T16:29:13Z
2022-12-07T14:26:22Z,42.805,6.029,13.3016,4.60080,2470.553,2022-12-07T16:32:16Z
2022-12-07T14:29:25Z,42.805,6.029,13.3018,4.60084,2470.577,2022-12-07T16:35:19Z
2022-12-07T14:32:28Z,42.805,6.029,13.3017,4.60079,2470.567,2022-12-07T16:38:22Z
2022-12-07T14:35:31Z,42.805,6.029,13.3029,4.60094,2470.544,2022-12-07T16:41:25Z
2022-12-07T14:38:34Z,42.805,6.029,13.3015,4.60080,2470.507,2022-12-07T16:44:28Z
2022-12-07T14:41:37Z,42.805,6.029,13.3020,4.60079,2470.567,2022-12-07T16:47:31Z
2022-12-07T14:44:40Z,42.805,6.029,13.3020,4.60087,2470.6,2022-12-07T16:50:34Z
2022-12-07T14:47:44Z,42.805,6.029,13.3024,4.60081,2470.567,2022-12-07T16:53:37Z
2022-12-07T14:50:47Z,42.805,6.029,13.3028,4.60089,2470.553,2022-12-07T16:56:40Z
2022-12-07T14:53:50Z,42.805,6.029,13.3030,4.60091,2470.591,2022-12-07T16:59:43Z
2022-12-07T14:56:53Z,42.805,6.029,13.3030,4.60097,2470.577,2022-12-07T17:02:47Z
2022-12-07T14:59:56Z,42.805,6.029,13.3028,4.60086,2470.567,2022-12-07T17:05:50Z
2022-12-07T15:02:59Z,42.805,6.029,13.3024,4.60081,2470.577,2022-12-07T17:08:53Z
2022-12-07T15:06:02Z,42.805,6.029,13.3023,4.60085,2470.577,2022-12-07T17:11:56Z
2022-12-07T15:09:05Z,42.805,6.029,13.3027,4.60097,2470.563,2022-12-07T17:14:59Z
2022-12-07T15:12:08Z,42.805,6.029,13.3020,4.60086,2470.577,2022-12-07T17:18:02Z
2022-12-07T15:15:11Z,42.805,6.029,13.3016,4.60077,2470.6,2022-12-07T17:21:05Z
2022-12-07T15:18:14Z,42.805,6.029,13.3024,4.60089,2470.577,2022-12-07T17:24:08Z
2022-12-07T15:21:17Z,42.805,6.029,13.3016,4.60083,2470.591,2022-12-07T17:27:11Z
2022-12-07T15:24:21Z,42.805,6.029,13.3023,4.60092,2470.577,2022-12-07T17:30:14Z
2022-12-07T15:27:24Z,42.805,6.029,13.3014,4.60086,2470.577,2022-12-07T17:33:17Z
2022-12-07T15:30:27Z,42.805,6.029,13.3022,4.60104,2470.577,2022-12-07T17:36:20Z
2022-12-07T15:33:30Z,42.805,6.029,13.3011,4.60104,2470.577,2022-12-07T17:39:24Z
2022-12-07T15:36:33Z,42.805,6.029,13.3016,4.60093,2470.614,2022-12-07T17:42:27Z
2022-12-07T15:39:36Z,42.805,6.029,13.3016,4.60088,2470.614,2022-12-07T17:45:30Z
2022-12-07T15:42:39Z,42.805,6.029,13.3026,4.60094,2470.637,2022-12-07T17:48:33Z
2022-12-07T15:45:42Z,42.805,6.029,13.3025,4.60090,2470.577,2022-12-07T17:51:36Z